Location: Complexul Astronomic Baia Mare
(47.6577°N, 23.5639°E)
Time: 19:44:31
(UTC+03:00)

ISS - Pass Details

Date: 28 May 2017
Orbit: 400 x 408 km, 51.6° (Epoch: 25 July)

Event Time Altitude Azimuth Distance (km) Brightness Sun altitude
Rises 00:53:04 0° 287° (WNW) 2,345 0.4 -20.6°
Reaches altitude 10° 00:55:13 10° 294° (WNW) 1,480 -0.6 -20.6°
Maximum altitude 00:58:25 42° 8° (N) 596 -2.6 -20.7°
Drops below altitude 10° 01:01:35 10° 81° (E) 1,472 -1.0 -20.7°
Enters shadow 01:01:53 - 83° (E) 1,591 -0.8 -20.7°
